Weather in Klyuchi

Russia / Amur Oblast     49°43′54″N   128°04′43″E
temp.,
°C
wind,
m/s
gust,
m/s
humid.,
%
clouds,
%
prec.,
mm/h
press.,
hPa
HPBL,
m
7 march, sun
sun700:00−18s3386100 0.0 102847
03:00−15s3588100 0.0 1026148
06:00−14s4995100 0.6 1023518
09:00−14ssw5894100 1.4 1023490
12:00−10wsw2387100 0.3 1021490
15:00−9nnw3484100 0.4 1022703
18:00−13n129069 0.0 102421
21:00−16nw129534 0.0 102720
8 march, mon
mon800:00−16w22940 0.0 102720
03:00−17ssw22920 0.0 102820
06:00−17s23870 0.0 102722
09:00−13ssw49870 0.0 1026276
12:00−6ssw510810 0.0 1023581
15:00−2ssw611780 0.0 1018702
18:00−4ssw5128591 0.0 1016555
21:00−4sw5148795 0.0 1014502
9 march, tue
tue900:00−4sw41284100 0.0 1012405
03:00−6sw51084100 0.0 1009234
06:00−8w488881 0.0 1007140
09:00−4nw8149491 2.8 10091010
12:00−6nnw101678100 0.6 10131087
15:00−2nw8157383 0.6 10171479
18:00−5nw6167425 0.0 1021677
21:00−8nw5157512 0.0 1024321
10 march, wed
wed1000:00−11wnw44800 0.0 102666
03:00−12w23790 0.0 102721
06:00−13ssw22791 0.0 102721
09:00−10s378431 0.0 1025197
12:00−4sw61075100 0.0 1022623
15:00−1sw6127299 0.0 1019917
18:00−3sw5117967 0.0 1018218
21:00−6wsw458233 0.0 102085
11 march, thu
thu1100:00−6wnw488433 0.0 1022124
03:00−8nw488317 0.0 1024133
06:00−10nw410870 0.0 1027195
09:00−9nw511860 0.0 1030365
12:00−5nnw58760 0.0 1032591
15:00−4nnw48750 0.0 1032690
18:00−8n23770 0.0 103221
21:00−11w12740 0.0 103421